Tracking 24122 objects as of 8-Dec-2021
HD Live streaming from Space Station
objects crossing your sky now

THORAD AGENA D DEB

Track THORAD AGENA D DEB now!
10-day predictions


NORAD ID: 4451
Int'l Code: 1969-082EW
Perigee: 716.7 km
Apogee: 775.6 km
Inclination: 70.0 °
Period: 99.6 minutes
Semi major axis: 7117 km
RCS: 0.0152 m2 (small)
Launch date: September 30, 1969
Source: United States (US)
Launch site: AIR FORCE WESTERN TEST RANGE (AFWTR)

Note: This is SATELLITE DEBRIS
aabbcc
Your satellite tracking list
Your tracking list is empty




NASA's NSSDC Master Catalog

Two Line Element Set (TLE):
1  4451U 69082EW  21342.15056302  .00000355  00000-0  11576-3 0  9999
2  4451  70.0372 307.2837 0041332 294.6678  65.0153 14.45914909716606
Source of the keplerian elements: AFSPC